Location: Newark
(15.5700°N, 75.3700°E)
Time: 16:22:46
(UTC+00:00)

ISS - Pass Details

Date: 16 November 2019
Orbit: 411 x 421 km, 51.6° (Epoch: 08 December)

Event Time Altitude Azimuth Distance (km) Brightness Sun altitude
Rises 14:14:40 0° 234° (SW) 2,338 1.1 -26.1°
Reaches altitude 10° 14:16:53 10° 245° (WSW) 1,480 0.0 -26.7°
Enters shadow 14:18:40 24° 269° (W) 911 -1.4 -27.1°
